Back to catalog

STARLINK-30454

AliveCommunicationsVLEO
NORAD 57915·PAYLOAD·🇺🇸 United States

Launched Sep 24, 2023 from Cape Canaveral Space Force Station

Loading…

Next Passes (next 24 hours)

TLE

FreshSource: CelesTrak SupGP

Epoch: Sep 14, 2026, 14:13 UTC

1 57915C 23147C   26257.59284722  .00004926  00000+0  17846-3 0  2571
2 57915  43.0037 338.2098 0001298 274.8836 328.5635 15.27567198    11

Track STARLINK-30454 in real time with AllMySat

Download on the App Store